| time (UTC) | temp F | wind direction | speed knots | gust knots | rain 1hr in | rain 24hr in | rain mn in | humidity % | barometer mb |
| 20260506004548 | 74 | 12 | 0.9 | 6.1 | 0.00 | 0.00 | 0.00 | 64 | 983.7 |
| 20260506003042 | 75 | 21 | 1.7 | 7.0 | 0.00 | 0.00 | 0.00 | 63 | 983.5 |
| 20260506001537 | 76 | 13 | 0.9 | 6.1 | 0.00 | 0.00 | 0.00 | 62 | 983.0 |
| 20260506000038 | 78 | 308 | 1.7 | 7.8 | 0.00 | 0.00 | 0.00 | 61 | 982.8 |
| 20260505234536 | 80 | 61 | 0.9 | 7.0 | 0.00 | 0.00 | 0.00 | 60 | 982.7 |
| 20260505233032 | 81 | 312 | 2.6 | 7.0 | 0.00 | 0.00 | 0.00 | 58 | 982.5 |
| 20260505231532 | 83 | 337 | 3.5 | 7.8 | 0.00 | 0.00 | 0.00 | 56 | 982.4 |
| 20260505230041 | 84 | 266 | 1.7 | 7.8 | 0.00 | 0.00 | 0.00 | 54 | 982.2 |
| 20260505224534 | 85 | 323 | 1.7 | 7.8 | 0.00 | 0.00 | 0.00 | 53 | 981.7 |
| 20260505223027 | 86 | 276 | 2.6 | 7.0 | 0.00 | 0.00 | 0.00 | 48 | 981.8 |
| 20260505221529 | 86 | 337 | 2.6 | 6.1 | 0.00 | 0.00 | 0.00 | 47 | 981.4 |
| 20260505220030 | 88 | 335 | 3.5 | 7.8 | 0.00 | 0.00 | 0.00 | 47 | 981.2 |
| 20260505214522 | 90 | 317 | 0.9 | 4.3 | 0.00 | 0.00 | 0.00 | 48 | 981.4 |
| 20260505213018 | 90 | 248 | 1.7 | 6.1 | 0.00 | 0.00 | 0.00 | 47 | 981.2 |
| 20260505211516 | 90 | 294 | 1.7 | 6.1 | 0.00 | 0.00 | 0.00 | 49 | 981.5 |
| 20260505210014 | 91 | 274 | 2.6 | 7.0 | 0.00 | 0.00 | 0.00 | 50 | 981.6 |
| 20260505204514 | 90 | 221 | 1.7 | 6.1 | 0.00 | 0.00 | 0.00 | 51 | 981.7 |
| 20260505203022 | 90 | 183 | 1.7 | 7.8 | 0.00 | 0.00 | 0.00 | 52 | 981.8 |
| 20260505201506 | 90 | 202 | 1.7 | 6.1 | 0.00 | 0.00 | 0.00 | 53 | 982.2 |
| 20260505200002 | 89 | 259 | 0.9 | 7.0 | 0.00 | 0.00 | 0.00 | 54 | 982.4 |
| 20260505194601 | 88 | 204 | 1.7 | 7.0 | 0.00 | 0.00 | 0.00 | 54 | 982.4 |
| 20260505193119 | 88 | 293 | 1.7 | 7.0 | 0.00 | 0.00 | 0.00 | 57 | 982.5 |
| 20260505191558 | 86 | 324 | 1.7 | 6.1 | 0.00 | 0.00 | 0.00 | 59 | 982.5 |
| 20260505190048 | 85 | 223 | 2.6 | 8.7 | 0.00 | 0.00 | 0.00 | 61 | 982.4 |
| 20260505184552 | 84 | 32 | 2.6 | 9.6 | 0.00 | 0.00 | 0.00 | 64 | 982.4 |
| 20260505183044 | 83 | 285 | 2.6 | 8.7 | 0.00 | 0.00 | 0.00 | 64 | 982.7 |
| 20260505181542 | 83 | 162 | 4.3 | 7.8 | 0.00 | 0.00 | 0.00 | 63 | 982.6 |
| 20260505180044 | 83 | 176 | 3.5 | 8.7 | 0.00 | 0.00 | 0.00 | 64 | 982.8 |
| 20260505174539 | 83 | 240 | 4.3 | 13.0 | 0.00 | 0.00 | 0.00 | 63 | 982.6 |
| 20260505173034 | 83 | 185 | 3.5 | 13.0 | 0.00 | 0.00 | 0.00 | 66 | 982.6 |
| 20260505171536 | 82 | 236 | 1.7 | 7.0 | 0.00 | 0.00 | 0.00 | 67 | 982.8 |
| 20260505170034 | 81 | 264 | 3.5 | 9.6 | 0.00 | 0.00 | 0.00 | 68 | 982.9 |
| 20260505164527 | 80 | 222 | 3.5 | 11.3 | 0.00 | 0.00 | 0.00 | 69 | 982.8 |
| 20260505163030 | 80 | 236 | 4.3 | 11.3 | 0.00 | 0.00 | 0.00 | 70 | 982.7 |
| 20260505161524 | 80 | 126 | 3.5 | 10.4 | 0.00 | 0.00 | 0.00 | 72 | 982.6 |
| 20260505153018 | 77 | 212 | 4.3 | 10.4 | 0.00 | 0.00 | 0.00 | 75 | 982.5 |
| 20260505151511 | 76 | 175 | 5.2 | 13.0 | 0.00 | 0.00 | 0.00 | 75 | 982.5 |
| 20260505124557 | 71 | 236 | 4.3 | 11.3 | 0.00 | 0.00 | 0.00 | 83 | 982.1 |
| 20260505123100 | 71 | 155 | 2.6 | 10.4 | 0.00 | 0.00 | 0.00 | 83 | 982.2 |
| 20260505121548 | 71 | 236 | 2.6 | 8.7 | 0.00 | 0.00 | 0.00 | 83 | 981.8 |
| 20260505120054 | 71 | 213 | 2.6 | 13.0 | 0.00 | 0.00 | 0.00 | 83 | 981.8 |
| 20260505114546 | 71 | 286 | 2.6 | 10.4 | 0.00 | 0.00 | 0.00 | 83 | 981.7 |
| 20260505113045 | 71 | 224 | 2.6 | 9.6 | 0.00 | 0.00 | 0.00 | 83 | 981.6 |
| 20260505111540 | 71 | 241 | 2.6 | 11.3 | 0.00 | 0.00 | 0.00 | 83 | 981.6 |
| 20260505101536 | 71 | 224 | 2.6 | 6.1 | 0.00 | 0.00 | 0.00 | 82 | 981.7 |
| 20260505100033 | 72 | 164 | 3.5 | 9.6 | 0.00 | 0.00 | 0.00 | 81 | 981.9 |
| 20260505094532 | 72 | 213 | 2.6 | 7.0 | 0.00 | 0.00 | 0.00 | 81 | 981.7 |
| 20260505093030 | 72 | 245 | 1.7 | 7.0 | 0.00 | 0.00 | 0.00 | 81 | 981.7 |
| 20260505091531 | 72 | 174 | 2.6 | 7.0 | 0.00 | 0.00 | 0.00 | 81 | 982.0 |
| 20260505090026 | 72 | 189 | 2.6 | 7.8 | 0.00 | 0.00 | 0.00 | 81 | 982.1 |
| 20260505084542 | 72 | 224 | 3.5 | 8.7 | 0.00 | 0.00 | 0.00 | 80 | 982.2 |
| 20260505083041 | 72 | 143 | 1.7 | 10.4 | 0.00 | 0.00 | 0.00 | 79 | 982.3 |
| 20260505081625 | 72 | 160 | 2.6 | 10.4 | 0.00 | 0.00 | 0.00 | 79 | 982.2 |
| 20260505080033 | 73 | 188 | 2.6 | 7.8 | 0.00 | 0.00 | 0.00 | 78 | 982.2 |
| 20260505074519 | 73 | 118 | 1.7 | 7.0 | 0.00 | 0.00 | 0.00 | 77 | 982.4 |
| 20260505073029 | 73 | 207 | 2.6 | 7.0 | 0.00 | 0.00 | 0.00 | 76 | 982.7 |
| 20260505071513 | 73 | 137 | 2.6 | 7.8 | 0.00 | 0.00 | 0.00 | 76 | 982.9 |
| 20260505070010 | 73 | 146 | 1.7 | 8.7 | 0.00 | 0.00 | 0.00 | 74 | 983.3 |
| 20260505064508 | 74 | 117 | 2.6 | 7.8 | 0.00 | 0.00 | 0.00 | 73 | 983.5 |
| 20260505063006 | 74 | 110 | 2.6 | 7.8 | 0.00 | 0.00 | 0.00 | 72 | 983.6 |
| 20260505061503 | 74 | 162 | 0.9 | 6.1 | 0.00 | 0.00 | 0.00 | 71 | 983.6 |
| 20260505060003 | 75 | 200 | 2.6 | 7.0 | 0.00 | 0.00 | 0.00 | 70 | 983.7 |
| 20260505054502 | 75 | 214 | 0.9 | 5.2 | 0.00 | 0.00 | 0.00 | 70 | 983.4 |
| 20260505053107 | 75 | 184 | 2.6 | 7.0 | 0.00 | 0.00 | 0.00 | 70 | 983.5 |
| 20260505051559 | 75 | 155 | 1.7 | 6.1 | 0.00 | 0.00 | 0.00 | 70 | 983.5 |
| 20260505041602 | 75 | 219 | 2.6 | 10.4 | 0.00 | 0.00 | 0.00 | 69 | 983.6 |
| 20260505040057 | 75 | 225 | 2.6 | 8.7 | 0.00 | 0.00 | 0.00 | 69 | 983.9 |
| 20260505034553 | 76 | 180 | 2.6 | 9.6 | 0.00 | 0.00 | 0.00 | 69 | 983.9 |
| 20260505033052 | 75 | 186 | 1.7 | 8.7 | 0.00 | 0.00 | 0.00 | 68 | 983.7 |
| 20260505031553 | 76 | 121 | 0.9 | 6.1 | 0.00 | 0.00 | 0.00 | 68 | 983.8 |
| 20260505030109 | 76 | 79 | 0.9 | 7.8 | 0.00 | 0.00 | 0.00 | 68 | 983.9 |
| 20260505024556 | 76 | 192 | 2.6 | 7.8 | 0.00 | 0.00 | 0.00 | 67 | 983.9 |
| 20260505023050 | 76 | 136 | 1.7 | 7.8 | 0.00 | 0.00 | 0.00 | 67 | 983.8 |
| 20260505021551 | 76 | 203 | 2.6 | 9.6 | 0.00 | 0.00 | 0.00 | 66 | 983.6 |
| 20260505020049 | 76 | 265 | 1.7 | 7.8 | 0.00 | 0.00 | 0.00 | 66 | 983.6 |
| 20260505014603 | 77 | 85 | 1.7 | 5.2 | 0.00 | 0.00 | 0.00 | 65 | 983.6 |
| 20260505013051 | 77 | 172 | 2.6 | 8.7 | 0.00 | 0.00 | 0.00 | 64 | 983.6 |
| 20260505011547 | 77 | 195 | 3.5 | 12.2 | 0.00 | 0.00 | 0.00 | 63 | 983.8 |
| 20260505010055 | 77 | 239 | 4.3 | 9.6 | 0.00 | 0.00 | 0.00 | 63 | 983.8 |